User: anonymous   Login
Location: Wilsall
(45.9940°N, 110.6590°W)
Time: 23:48:28
(UTC-06:00)
Language:

GP-B - Orbit

View from above orbital plane
View from above orbital plane
View from above satellite
View from above satellite

Ground track
Ground track

The orbit data is extracted from the following two-line orbital elements,

1 28230U 04014A   18112.51741562 +.00000115 +00000-0 +13537-4 0  9998
2 28230 089.8310 115.9128 0003197 099.9707 260.1876 14.78612304212005
Epoch (UTC): 22 April 2018 12:25:04
Eccentricity: 0.0003197
inclination: 89.8310°
perigee height: 631 km
apogee height: 636 km
right ascension of ascending node: 115.9128°
argument of perigee: 99.9707°
revolutions per day: 14.78612304
mean anomaly at epoch: 260.1876°
orbit number at epoch: 21200

The dashed part of the orbit path shows where the satellite is in the earth's shadow,  

DLR